Date String (YYYY-MM-DD hh:mm:ss) UTC,Instrument flags,absolute air pressure of the measurement (hPa),sample flow rate (lpm),inlet stack bypass flow (lpm),air temperature of the measurement (°C),ambient temperature measured by the external sensor (°C),aerosol sample conditioner tube jacket temperature (°C),OPC LED temperature (°C),internal box temperature (°C),relative humidity of the measurement (%),span deviation,mass concentration of particles derived from Lorenz-Mie calculation of OPC scattering (μg/m³),mass concentration of particles derived from Lorenz-Mie calculation of OPC scattering (μg/m³),mass concentration of particles derived from Lorenz-Mie calculation of OPC scattering (μg/m³)
DateTimeUTC,F1_M11,P_M11,Q1_M11,Q2_M11,T1_M11,T2_M11,T3_M11,T4_M11,T5_M11,U1_M11,ZSPAN_M11,X0_M11,X2_M11,X1_M11
2023-09-20 06:00:00,SystemResetWarning,0829.4,5.01,000.00,028.8,027.4,000.0,037.1,030.4,17.1,0000.0,0002.65,0001.74,0001.38
2023-09-20 06:01:00,SystemResetWarning,0829.3,5.01,000.00,028.8,027.4,000.0,037.1,030.4,17.3,0000.0,0002.92,0001.71,0001.37
2023-09-20 06:02:00,SystemResetWarning,0829.3,4.99,000.00,028.8,027.4,000.0,037.1,030.4,17.4,0000.0,0002.97,0001.67,0001.37
2023-09-20 06:03:00,SystemResetWarning,0829.2,5.00,000.00,028.8,027.4,000.0,037.1,030.5,17.3,0000.0,0002.92,0001.66,0001.36
2023-09-20 06:04:00,SystemResetWarning,0829.2,5.00,000.00,028.8,027.4,000.0,037.1,030.5,17.0,0000.0,0002.86,0001.66,0001.37
2023-09-20 06:05:00,SystemResetWarning,0829.2,4.99,000.00,028.8,027.4,000.0,037.2,030.5,16.9,0000.0,0002.88,0001.66,0001.36
2023-09-20 06:06:00,SystemResetWarning,0829.2,5.00,000.00,028.9,027.4,000.0,037.2,030.5,16.9,0000.0,0002.79,0001.66,0001.37
2023-09-20 06:07:00,SystemResetWarning,0829.2,5.00,000.00,028.9,027.4,000.0,037.2,030.5,16.9,0000.0,0002.74,0001.63,0001.36
2023-09-20 06:08:00,SystemResetWarning,0829.1,4.99,000.00,028.9,027.5,000.0,037.2,030.5,16.9,0000.0,0002.73,0001.62,0001.36
2023-09-20 06:09:00,SystemResetWarning,0829.2,5.00,000.00,028.9,027.4,000.0,037.2,030.5,16.8,0000.0,0002.72,0001.63,0001.36
2023-09-20 06:10:00,SystemResetWarning,0829.1,5.00,000.00,028.8,026.1,000.0,037.2,030.2,16.9,0000.0,0002.76,0001.64,0001.37
2023-09-20 06:11:00,SystemResetWarning,0829.1,5.01,000.00,028.7,024.5,000.0,037.1,029.8,17.0,0000.0,0002.84,0001.66,0001.36
2023-09-20 06:12:00,SystemResetWarning,0829.1,5.01,000.00,028.6,024.3,000.0,037.0,029.6,17.2,0000.0,0002.61,0001.67,0001.36
2023-09-20 06:13:00,SystemResetWarning,0829.0,5.00,000.00,028.4,024.5,000.0,037.0,029.6,17.4,0000.0,0002.32,0001.70,0001.37
2023-09-20 06:14:00,SystemResetWarning,0829.1,5.00,000.00,028.3,024.8,000.0,036.9,029.5,17.4,0000.0,0002.33,0001.71,0001.37
2023-09-20 06:15:00,SystemResetWarning,0829.1,5.00,000.00,028.3,025.2,000.0,036.9,029.6,17.5,0000.0,0002.37,0001.71,0001.37
2023-09-20 06:16:00,SystemResetWarning,0829.1,5.00,000.00,028.3,025.5,000.0,036.9,029.7,17.6,0000.0,0002.45,0001.71,0001.37
2023-09-20 06:17:00,SystemResetWarning,0829.1,4.99,000.00,028.3,025.8,000.0,036.8,029.7,17.7,0000.0,0002.92,0001.71,0001.38
2023-09-20 06:18:00,SystemResetWarning,0829.1,4.99,000.00,028.3,026.0,000.0,036.8,029.8,17.7,0000.0,0002.88,0001.70,0001.38
2023-09-20 06:19:00,SystemResetWarning,0829.1,5.00,000.00,028.3,026.2,000.0,036.8,029.8,17.7,0000.0,0002.91,0001.72,0001.39
2023-09-20 06:20:00,SystemResetWarning,0829.2,5.00,000.00,028.3,026.4,000.0,036.8,029.8,17.7,0000.0,0002.98,0001.73,0001.39
2023-09-20 06:21:00,SystemResetWarning,0829.2,5.00,000.00,028.3,026.5,000.0,036.8,029.8,17.7,0000.0,0002.97,0001.72,0001.40
2023-09-20 06:22:00,SystemResetWarning,0829.3,5.00,000.00,028.3,026.6,000.0,036.7,029.9,17.7,0000.0,0002.95,0001.72,0001.41
2023-09-20 06:23:00,SystemResetWarning,0829.3,5.00,000.00,028.3,026.7,000.0,036.7,029.9,17.8,0000.0,0003.14,0001.74,0001.43
2023-09-20 06:24:00,SystemResetWarning,0829.3,5.00,000.00,028.3,026.7,000.0,036.7,029.9,18.1,0000.0,0003.99,0001.77,0001.43
2023-09-20 06:25:00,SystemResetWarning,0829.3,5.01,000.00,028.3,026.8,000.0,036.7,029.9,17.9,0000.0,0004.00,0001.76,0001.43
2023-09-20 06:26:00,SystemResetWarning,0829.3,5.00,000.00,028.3,026.8,000.0,036.7,029.9,17.8,0000.0,0004.01,0001.76,0001.43
2023-09-20 06:27:00,SystemResetWarning,0829.3,5.00,000.00,028.3,026.8,000.0,036.7,029.9,17.8,0000.0,0004.01,0001.77,0001.43
2023-09-20 06:28:00,SystemResetWarning,0829.2,5.01,000.00,028.3,026.9,000.0,036.7,030.0,17.3,0000.0,0003.56,0001.76,0001.44
2023-09-20 06:29:00,SystemResetWarning,0829.2,5.00,000.00,028.4,026.9,000.0,036.7,030.0,17.3,0000.0,0003.52,0001.79,0001.46
2023-09-20 06:30:00,SystemResetWarning,0829.1,5.00,000.00,028.4,026.9,000.0,036.7,030.0,17.3,0000.0,0003.87,0001.77,0001.46
2023-09-20 06:31:00,SystemResetWarning,0829.1,4.99,000.00,028.4,027.0,000.0,036.7,030.1,17.2,0000.0,0003.85,0001.76,0001.46
2023-09-20 06:32:00,SystemResetWarning,0829.1,4.99,000.00,028.4,027.0,000.0,036.7,030.1,17.1,0000.0,0003.81,0001.76,0001.46
2023-09-20 06:33:00,SystemResetWarning,0829.1,5.00,000.00,028.4,027.1,000.0,036.7,030.1,17.0,0000.0,0003.81,0001.76,0001.46
2023-09-20 06:34:00,SystemResetWarning,0829.2,5.00,000.00,028.5,027.1,000.0,036.7,030.1,17.1,0000.0,0003.58,0001.73,0001.45
2023-09-20 06:35:00,SystemResetWarning,0829.2,5.00,000.00,028.5,027.1,000.0,036.7,030.2,17.2,0000.0,0002.76,0001.70,0001.46
2023-09-20 06:36:00,SystemResetWarning,0829.2,5.00,000.00,028.5,027.1,000.0,036.8,030.2,17.5,0000.0,0002.89,0001.75,0001.47
2023-09-20 06:37:00,SystemResetWarning,0829.3,5.00,000.00,028.5,027.1,000.0,036.8,030.2,17.7,0000.0,0002.97,0001.78,0001.48
2023-09-20 06:38:00,SystemResetWarning,0829.3,5.00,000.00,028.5,027.1,000.0,036.8,030.2,17.4,0000.0,0003.04,0001.80,0001.48
2023-09-20 06:39:00,SystemResetWarning,0829.2,5.00,000.00,028.5,027.1,000.0,036.8,030.1,17.0,0000.0,0003.08,0001.81,0001.47
2023-09-20 06:40:00,SystemResetWarning,0829.2,5.00,000.00,028.5,027.1,000.0,036.8,030.2,16.9,0000.0,0003.09,0001.81,0001.46
2023-09-20 06:41:00,SystemResetWarning,0829.2,5.00,000.00,028.5,027.1,000.0,036.8,030.2,16.7,0000.0,0002.80,0001.83,0001.46
2023-09-20 06:42:00,SystemResetWarning,0829.2,4.99,000.00,028.5,027.1,000.0,036.8,030.2,16.8,0000.0,0003.10,0001.84,0001.47
2023-09-20 06:43:00,SystemResetWarning,0829.2,5.00,000.00,028.5,027.1,000.0,036.8,030.2,16.8,0000.0,0003.15,0001.84,0001.47
2023-09-20 06:44:00,SystemResetWarning,0829.2,5.01,000.00,028.6,027.1,000.0,036.8,030.2,16.7,0000.0,0003.14,0001.85,0001.47
2023-09-20 06:45:00,SystemResetWarning,0829.2,5.00,000.00,028.6,027.1,000.0,036.8,030.2,16.8,0000.0,0003.10,0001.84,0001.47
2023-09-20 06:46:00,SystemResetWarning,0829.2,5.00,000.00,028.6,027.1,000.0,036.9,030.2,16.8,0000.0,0003.22,0001.89,0001.47
2023-09-20 06:47:00,SystemResetWarning,0829.2,5.01,000.00,028.6,027.1,000.0,036.9,030.2,16.7,0000.0,0003.13,0001.87,0001.46
2023-09-20 06:48:00,SystemResetWarning,0829.2,5.00,000.00,028.6,027.1,000.0,036.9,030.2,16.7,0000.0,0003.16,0001.89,0001.47
2023-09-20 06:49:00,SystemResetWarning,0829.2,5.00,000.00,028.6,027.1,000.0,036.9,030.2,16.7,0000.0,0003.21,0001.90,0001.48
2023-09-20 06:50:00,SystemResetWarning,0829.3,5.00,000.00,028.6,027.2,000.0,036.9,030.2,16.6,0000.0,0003.59,0001.90,0001.49
2023-09-20 06:51:00,SystemResetWarning,0829.3,5.00,000.00,028.6,027.2,000.0,036.9,030.2,16.6,0000.0,0003.62,0001.91,0001.49
2023-09-20 06:52:00,SystemResetWarning,0829.3,5.00,000.00,028.6,027.2,000.0,036.9,030.3,16.6,0000.0,0003.59,0001.92,0001.48
2023-09-20 06:53:00,SystemResetWarning,0829.4,4.99,000.00,028.6,027.2,000.0,036.9,030.3,16.6,0000.0,0003.39,0001.96,0001.49
2023-09-20 06:54:00,SystemResetWarning,0829.4,5.00,000.00,028.6,027.2,000.0,036.9,030.3,16.6,0000.0,0003.67,0002.06,0001.50
2023-09-20 06:55:00,SystemResetWarning,0829.4,5.00,000.00,028.6,027.2,000.0,036.9,030.3,16.6,0000.0,0004.22,0002.17,0001.52
2023-09-20 06:56:00,SystemResetWarning,0829.4,4.99,000.00,028.7,027.2,000.0,037.0,030.3,16.7,0000.0,0006.67,0002.24,0001.53
2023-09-20 06:57:00,SystemResetWarning,0829.3,4.99,000.00,028.7,027.2,000.0,037.0,030.3,17.0,0000.0,0007.62,0002.26,0001.53
2023-09-20 06:58:00,SystemResetWarning,0829.3,5.00,000.00,028.7,027.3,000.0,037.0,030.3,16.8,0000.0,0007.65,0002.28,0001.53
2023-09-20 06:59:00,SystemResetWarning,0829.3,5.00,000.00,028.7,027.3,000.0,037.0,030.4,16.7,0000.0,0007.60,0002.24,0001.53
